This demonstration page uses our WeatherBlox Daily Observations layout. Learn more.

Left ArrowRight Arrow

Hourly Observations for January 16, 2016

Temp ( °F °C ) Dew Point ( °F °C ) Humidity (%) Winds ( mph kmh ) Pressure ( in mb ) Visibility ( mi km ) Precip ( " mm )
12:53 am 00:53 Clear 51 10.6 28 -2.2 41 41 NW 10 17 29.74 1007 10 16 0.00 0.00
1:53 am 01:53 Partly Cloudy 47 8.3 27 -2.8 46 46 undefined N/A 29.74 1007 10 16 0.00 0.00
2:53 am 02:53 Clear 42 5.6 27 -2.8 55 55 WNW 10 17 29.75 1008 10 16 0.00 0.00
3:53 am 03:53 Clear 44 6.7 27 -2.8 51 51 NNW 10 17 29.77 1008 10 16 0.00 0.00
4:53 am 04:53 Clear 40 4.4 27 -2.8 60 60 NW 9 15 29.80 1009 10 16 0.00 0.00
5:53 am 05:53 Mostly Clear 43 6.1 27 -2.8 53 53 NNW 18 30 29.84 1011 10 16 0.00 0.00
6:53 am 06:53 Clear 42 5.6 26 -3.3 53 53 NW 16 26 29.88 1012 10 16 0.00 0.00
7:53 am 07:53 Sunny 39 3.9 24 -4.4 55 55 NW 13 20 29.95 1014 10 16 0.00 0.00
8:53 am 08:53 Sunny 41 5 26 -3.3 55 55 NNW 16 26 29.98 1015 10 16 0.00 0.00
9:53 am 09:53 Sunny 44 6.7 28 -2.2 53 53 NNW 18 30 30.04 1017 10 16 0.00 0.00
10:53 am 10:53 Sunny 47 8.3 29 -1.7 50 50 NNW 17 28 30.06 1018 10 16 0.00 0.00
11:53 am 11:53 Sunny 49 9.4 29 -1.7 46 46 N 13 20 30.06 1018 10 16 0.00 0.00
12:53 pm 12:53 Mostly Sunny 52 11.1 29 -1.7 41 41 N 13 20 30.05 1018 10 16 0.00 0.00
1:53 pm 13:53 Sunny 53 11.7 29 -1.7 40 40 N 15 24 30.01 1016 10 16 0.00 0.00
2:53 pm 14:53 Sunny 54 12.2 29 -1.7 38 38 NNE 10 17 30.01 1016 10 16 0.00 0.00
3:53 pm 15:53 Sunny 54 12.2 28 -2.2 37 37 NNE 7 11 29.99 1016 10 16 0.00 0.00
4:53 pm 16:53 Sunny 54 12.2 28 -2.2 37 37 NE 10 17 29.99 1016 10 16 0.00 0.00
5:53 pm 17:53 Sunny 50 10 29 -1.7 44 44 ENE 6 9 30.01 1016 10 16 0.00 0.00
6:53 pm 18:53 Clear 44 6.7 28 -2.2 53 53 ESE 6 9 30.04 1017 10 16 0.00 0.00
7:53 pm 19:53 Clear 41 5 28 -2.2 60 60 E 7 11 30.06 1018 10 16 0.00 0.00
8:53 pm 20:53 Clear 39 3.9 28 -2.2 65 65 ESE 6 9 30.07 1018 10 16 0.00 0.00
9:53 pm 21:53 Clear 36 2.2 28 -2.2 73 73 SE 6 9 30.07 1018 10 16 0.00 0.00
10:53 pm 22:53 Clear 35 1.7 27 -2.8 72 72 SE 8 13 30.07 1018 10 16 0.00 0.00
11:53 pm 23:53 Clear 32 0 27 -2.8 82 82 SSE 7 11 30.08 1019 10 16 0.00 0.00

Powered by AerisWeather